This is the latest recevied weather packets stored in our database for station/object OE6ACM-14. If no packets are shown the sender has not sent any weather packets the latest 10 day(s).
| Time | Temp. | Humidity | Pressure | Rain* | Wind** | Luminosity | Snow |
|---|---|---|---|---|---|---|---|
| 1777990501 | 26.67° C | 27% | 918.9 hPa | - | - | - | - |
| 1777989901 | 25° C | 27% | 919.1 hPa | - | - | - | - |
| 1777989601 | 24.44° C | 29% | 919.2 hPa | - | - | - | - |
| 1777989301 | 23.89° C | 29% | 919.2 hPa | - | - | - | - |
| 1777989001 | 23.33° C | 29% | 919.3 hPa | - | - | - | - |
| 1777988553 | 23.33° C | 30% | 919.3 hPa | - | - | - | - |
| 1777988253 | 23.33° C | 30% | 919.3 hPa | - | - | - | - |
| 1777987953 | 23.33° C | 30% | 919.3 hPa | - | - | - | - |
| 1777987653 | 23.33° C | 29% | 919.4 hPa | - | - | - | - |
| 1777987353 | 22.78° C | 29% | 919.4 hPa | - | - | - | - |
| 1777987053 | 23.33° C | 29% | 919.5 hPa | - | - | - | - |
| 1777986753 | 22.78° C | 31% | 919.8 hPa | - | - | - | - |
| 1777986453 | 22.78° C | 30% | 919.6 hPa | - | - | - | - |
| 1777986153 | 22.78° C | 30% | 919.6 hPa | - | - | - | - |
| 1777985853 | 22.78° C | 30% | 919.8 hPa | - | - | - | - |
| 1777985553 | 23.33° C | 28% | 919.7 hPa | - | - | - | - |
| 1777985253 | 22.78° C | 30% | 919.8 hPa | - | - | - | - |
| 1777984953 | 22.78° C | 29% | 919.9 hPa | - | - | - | - |
| 1777984653 | 22.22° C | 30% | 920 hPa | - | - | - | - |
| 1777984353 | 22.78° C | 29% | 920 hPa | - | - | - | - |
| 1777983726 | 24.44° C | 27% | 920 hPa | - | - | - | - |
| 1777983425 | 25° C | 27% | 919.9 hPa | - | - | - | - |
| 1777983125 | 24.44° C | 27% | 920 hPa | - | - | - | - |
| 1777982825 | 24.44° C | 29% | 920 hPa | - | - | - | - |
| 1777982525 | 25° C | 28% | 920 hPa | - | - | - | - |
* Rain since midnight (hover to see other rain measurements)
** Current wind speed in m/s (hover to see current wind gust speed)